Regional Weather Roundup
Issued by NWS

Home | Current Version | Previous Version | Graphics & Text | Print | Product List | Glossary On
Versions: 1 2 3 4 5 6 7 8 9 10 11 12 13 14 15 16 17 18 19 20 21 22 23 24 25 26 27 28 29 30 31 32 33 34 35 36 37 38 39 40 41 42 43 44 45 46 47 48 49 50
000
ASUS43 KBIS 260010
RWRND

NORTH DAKOTA REGIONAL WEATHER ROUNDUP
NATIONAL WEATHER SERVICE BISMARCK ND
600 PM CST TUE NOV 25 2014

NOTE: "FAIR" INDICATES FEW OR NO CLOUDS BELOW 12,000 FEET WITH NO
SIGNIFICANT WEATHER AND/OR OBSTRUCTIONS TO VISIBILITY.


NDZ001>003-009>011-017-260100-
NORTHWEST NORTH DAKOTA

CITY           SKY/WX    TMP DP  RH WIND       PRES   REMARKS
WILLISTON      CLOUDY    24  19  81 N23G29    29.96R WCI   9
6HR MIN TEMP:  24; 6HR MAX TEMP:  37; 6HR PCP:  0.01;

MINOT          LGT SNOW  19  15  84 N20       29.90R VSB 1   WCI   3
MINOT AFB      FLURRIES  19  18  93 NE17      29.92R WCI   4
$$

NDZ018>021-031>035-040>046-260100-
SOUTHWEST NORTH DAKOTA

CITY           SKY/WX    TMP DP  RH WIND       PRES   REMARKS
BISMARCK       CLOUDY    33  32  96 W3        29.72R
6HR MIN TEMP:  30; 6HR MAX TEMP:  33; 6HR PCP:  0.15;

DICKINSON      CLOUDY    33  28  81 NW21G29   29.75R
GARRISON         N/A     26  24  92 NE17G28   29.79R WCI  13
6HR MIN TEMP:  26; 6HR MAX TEMP:  31; 6HR PCP:  0.23;

HETTINGER ARPT CLOUDY    34  27  75 NW24G31   29.77R
$$

NDZ004>008-012>016-024-026-027-054-260100-
NORTHEAST NORTH DAKOTA

CITY           SKY/WX    TMP DP  RH WIND       PRES   REMARKS
GRAND FORKS    CLOUDY    21  16  81 NE12      29.98R WCI   9
GRND FRKS AFB  FLURRIES  19  14  79 NE10      29.98R WCI   8
DEVILS LAKE    CLOUDY    18   9  68 NE10      29.91R WCI   6
$$

NDZ022-023-025-028>030-036>039-047>053-260100-
SOUTHEAST NORTH DAKOTA

CITY           SKY/WX    TMP DP  RH WIND       PRES   REMARKS
FARGO          CLOUDY    25  16  68 SE7       29.91S WCI  17
6HR MIN TEMP:  25; 6HR MAX TEMP:  27;

JAMESTOWN      LGT SNOW  27  25  92 E13       29.81R VSB 3/4 WCI  16
$$



USA.gov is the U.S. government's official web portal to all federal, state and local government web resources and services.